Home   Weather   42°08'N, 71°03'W   Past weeks
Flag for USA

Past Weather in 42°08'N, 71°03'W, USA — Yesterday and Last 2 Weeks

Now
57 °F

Overcast.


Feels Like: 55 °F
Forecast: 62 / 52 °F
Wind: 8 mph from Southeast

Location: Logan International Airport

Current Time: Oct 20, 2019 at 10:50:04 pm

Latest Report: Oct 20, 2019 at 9:54 pm


Visibility: 10 mi

Pressure: 30.05 "Hg

Humidity: 74%

Dew Point: 49 °F

Location of 42°08'N, 71°03'WLocation

Past Weather in 42°08'N, 71°03'W — Graph

°F

42°08'N, 71°03'W Temperature Yesterday

Maximum temperature yesterday: 61 °F (at 2:54 pm)
Minimum temperature yesterday: 45 °F (at 5:54 am)
Average temperature yesterday: 53 °F

High & Low Weather Summary for the Past Weeks

 TemperatureHumidityPressure
High80 °F (Oct 7, 11:54 am)93% (Oct 17, 5:54 am)30.41 "Hg (Oct 17, 5:54 am)
Low45 °F (Oct 19, 5:54 am)33% (Oct 15, 1:54 pm)28.80 "Hg (Oct 17, 5:22 am)
Average57 °F69%30.00 "Hg
* Reported Oct 5 9:54 pm — Oct 20 9:54 pm, 42°08'N, 71°03'W. Weather by CustomWeather, © 2019

Note: Actual official high and low records may vary slightly from our data, if they occured in-between our weather recording intervals... More about our weather records

Advertising

42°08'N, 71°03'W Weather History for the Previous 24 Hours

Scroll right to see more
 ConditionsComfort  
Time TempWeatherWind HumidityBarometerVisibility
9:54 pm
Sun, Oct 20
57 °FOvercast.8 mph74%30.05 "Hg10 mi
8:54 pm57 °FOvercast.8 mph78%30.06 "Hg10 mi
7:54 pm57 °FMostly cloudy.5 mph78%30.05 "Hg10 mi
6:54 pm57 °FMostly cloudy.8 mph74%30.05 "Hg10 mi
5:54 pm57 °FOvercast.7 mph74%30.05 "Hg10 mi
4:54 pm57 °FMostly cloudy.6 mph67%30.06 "Hg10 mi
3:54 pm58 °FCloudy.8 mph67%30.07 "Hg10 mi
2:54 pm58 °FOvercast.7 mph67%30.08 "Hg10 mi
1:54 pm58 °FBroken clouds.7 mph65%30.07 "Hg10 mi
12:54 pm59 °FBroken clouds.6 mph67%30.08 "Hg10 mi
11:54 am57 °FBroken clouds.3 mph67%30.11 "Hg10 mi
10:54 am58 °FBroken clouds.3 mph65%30.10 "Hg10 mi
9:54 am54 °FBroken clouds.No wind67%30.10 "Hg10 mi
8:54 am48 °FBroken clouds.No wind71%30.09 "Hg10 mi
7:54 am46 °FBroken clouds.6 mph71%30.08 "Hg10 mi
6:54 am46 °FPartly cloudy.3 mph68%30.08 "Hg10 mi
5:54 am45 °FPassing clouds.6 mph68%30.07 "Hg10 mi
4:54 am46 °FPassing clouds.5 mph66%30.06 "Hg10 mi
3:54 am47 °FClear.6 mph66%30.07 "Hg10 mi
2:54 am47 °FPassing clouds.No wind64%30.06 "Hg10 mi
1:54 am49 °FPassing clouds.7 mph61%30.05 "Hg10 mi
12:54 am50 °FPassing clouds.6 mph59%30.05 "Hg10 mi
11:54 pm
Sat, Oct 19
51 °FPassing clouds.5 mph59%30.06 "Hg10 mi
10:54 pm53 °FPassing clouds.3 mph52%30.04 "Hg10 mi
Weather by CustomWeather, © 2019

See weather overview